Kuchera_Ratio
0.0 0.0 0.0 0.0 0.0 0.0 0.0 0.0 0.0 2.7 0.1 0.0 0.0 0.0 0.0 0.0 0.0 0.0 0.0 0.0 0.0 0.0 0.0 0.0 0.0 0.0 0.0 0.0 0.0 0.0 0.0 0.0 0.0 0.0 0.0 0.0 0.0 0.0
0.0 0.0 0.0 0.0 0.0 0.0 0.0 0.0 0.0 0.0 0.0 0.0 0.0 0.0 0.0 0.0 0.0 0.0 0.0 0.0 0.0 0.0 0.0 0.0 0.0 0.0 0.0 0.0 0.0 0.0 0.0 0.0 0.0 0.0 0.0 0.0 0.0 0.0
0.0 0.0 0.0 0.0 0.0 0.0 0.0 0.0 0.0 0.0 0.0 0.0 0.0 0.0 0.0 0.0 0.0 0.0 0.0 0.0 0.0 0.0 0.0 0.0 0.0 0.0 0.0 0.0 0.0 0.0 0.0 0.0 0.0 0.0 0.0 0.0 0.0 0.0
0.0 0.0 0.0 0.0 0.0 0.0 0.0 0.0 0.0 0.0 0.0 0.0 0.0 0.0 0.0 0.0 0.0 0.0 0.0 0.0 0.0 0.0 0.0 0.0 0.0 0.0 0.0 0.0 0.0 0.0 0.0 0.0 0.0 0.0 0.0 0.0 0.0 0.0
0.0 0.0 0.0 0.0 0.0 0.0 0.0 0.0 0.0 0.0 0.0 0.0 0.0 0.0 0.0 0.0 0.0 0.0 0.0 0.0 0.0 0.0 0.0 0.0 0.0 0.0 0.0 0.0 0.0 0.0 0.0 0.0 0.0 0.0 0.0 0.0 0.0 0.0
0.0 0.0 0.0 0.0 0.0 0.0 0.0 0.0 0.0 0.0 0.0 0.0 0.0 0.0 0.0 0.0 0.0 0.0 0.0 0.0 0.0 0.0 0.0 0.0 0.0 0.0 0.0 0.0 0.0 0.0 0.0 0.0 0.0 0.0 0.0 0.0 0.0 0.0
0.0 0.0 0.0 0.0 0.0 0.0 0.0 0.0 0.0 0.0 0.0 0.5 1.2 1.8 2.3 1.6 0.2 0.0 1.9 1.8 1.0 0.6 1.0 1.3 1.0 0.3 0.0 0.0 0.0 0.0 0.0 0.0 0.0 0.0 0.0 0.0 0.0 0.0
0.0 0.0 0.0 0.0 0.0 0.0 0.0 0.0 1.4 2.4 1.9 1.5 1.4 2.6 0.3 3.5 0.8 2.6 3.3 6.8 9.5 2.8 3.2 3.4 3.4 4.1 4.0 1.2 0.0 0.0 0.0 0.0 0.0 0.0 0.0 0.0 0.0 0.4
0.0 0.0 0.0 0.0 0.0 1.2 1.6 2.0 3.1 1.2 5.2 4.6 6.8 4.9 3.5 2.1 3.0 5.1 5.2 6.4 7.3 5.3 4.5 8.2 5.0 5.6 5.2 0.0 0.0 0.0 0.0 0.0 0.0 0.0 0.0 0.0 0.8 1.6
2.2 2.8 4.8 5.6 4.0 4.2 6.8 8.8 7.6 6.2 4.6 2.8 6.3 4.8 4.6 2.6 3.4 1.2 2.6 5.0 6.2 8.2 5.5 10.0 7.0 7.3 6.2 4.3 1.0 0.0 0.0 0.0 0.0 0.0 0.0 0.2 1.0 1.6
4.2 5.8 5.4 7.4 4.0 3.4 8.8 11.8 11.4 10.2 3.2 2.0 1.4 1.2 1.4 1.6 1.2 3.2 7.0 10.0 11.6 12.4 8.0 8.5 8.6 8.6 8.1 7.4 4.6 0.2 0.0 0.4 0.0 0.0 0.0 0.0 0.0 0.8
10.2 8.2 6.6 7.2 6.0 6.0 10.8 12.4 13.4 12.3 11.6 10.8 9.8 7.4 5.2 5.6 3.3 3.2 3.2 9.4 10.6 13.2 9.3 11.0 11.4 10.5 12.9 8.5 8.1 7.2 7.5 4.1 2.2 1.8 0.4 0.0 0.2 4.4
11.5 12.0 12.8 8.2 7.6 7.0 7.0 11.6 12.0 9.2 9.4 10.2 9.4 6.8 5.6 5.2 5.0 5.3 4.5 6.8 9.8 12.6 9.0 8.6 10.7 11.6 12.2 12.7 10.0 10.3 9.2 9.7 8.6 7.3 5.2 2.8 1.6 3.0
13.0 13.3 13.0 9.2 8.4 8.2 9.0 7.4 6.8 9.6 10.4 10.2 10.8 10.8 10.2 9.0 7.8 4.8 4.8 6.3 4.4 7.8 7.0 8.3 9.6 10.9 12.7 13.4 13.9 12.0 11.8 11.6 11.8 12.0 10.3 7.4 4.4 3.2
13.1 12.4 11.2 10.6 10.0 11.4 9.2 9.0 12.2 13.3 13.8 13.7 13.7 12.1 8.4 5.6 4.8 6.2 6.0 6.4 7.6 6.8 5.6 7.1 9.6 9.5 10.6 12.9 14.2 12.9 12.9 12.4 12.2 12.4 11.8 12.0 11.5 10.2
13.5 13.9 14.2 13.1 13.6 13.8 13.7 13.1 13.6 14.4 14.8 14.8 14.2 13.5 10.8 8.6 9.2 7.0 7.6 9.4 10.6 11.8 7.9 6.4 8.5 10.2 11.8 12.0 12.7 13.7 13.0 14.7 12.3 12.3 12.4 12.5 12.1 10.9
15.9 15.8 15.2 15.3 14.9 15.1 15.1 14.9 15.1 15.1 15.9 15.5 15.7 14.6 13.4 8.6 8.8 7.0 8.2 10.0 12.3 13.0 12.9 10.7 9.0 9.1 10.9 12.0 14.1 13.2 13.5 13.8 13.1 12.8 12.5 12.8 12.4 12.3
15.9 16.6 16.6 17.0 17.8 17.1 17.4 17.4 16.8 16.7 16.3 16.3 16.3 15.3 15.1 11.6 8.8 9.0 9.4 11.2 12.4 13.3 13.2 11.9 11.2 12.1 12.4 12.2 8.0 13.0 13.2 13.5 12.8 12.5 12.9 13.2 13.2 12.4
16.6 16.9 17.7 18.2 18.8 17.8 17.8 18.2 18.8 17.7 16.6 17.7 17.6 16.7 15.5 15.7 10.8 10.2 10.4 10.8 12.7 13.0 13.1 12.2 12.1 13.5 15.7 17.0 11.3 6.0 13.5 12.8 12.5 12.8 12.6 12.7 12.9 12.8
16.9 17.9 18.7 19.0 19.4 19.7 19.0 19.2 19.0 18.9 18.6 18.9 19.0 18.0 16.8 16.7 17.4 12.1 11.2 12.4 14.0 13.3 13.1 12.3 12.7 12.9 14.7 15.4 14.5 11.8 7.6 12.3 12.9 13.8 13.8 12.5 12.9 9.1
18.6 19.2 19.8 19.9 20.5 20.4 21.1 21.3 21.6 20.7 20.5 20.6 20.1 19.4 18.3 18.3 18.3 17.3 13.1 12.7 12.8 12.5 13.2 13.4 11.4 11.4 11.9 12.9 15.3 14.2 11.9 8.6 11.4 12.8 13.3 13.8 15.0 13.7
20.3 20.6 21.0 20.7 21.9 22.0 22.1 22.3 22.3 22.3 21.0 21.3 20.8 20.5 19.6 19.1 19.3 19.1 17.6 13.2 13.0 12.9 12.5 12.2 11.2 11.0 12.6 13.4 14.6 14.2 13.6 11.4 11.5 8.2 9.2 10.8 14.8 16.5
21.2 21.7 22.3 22.6 22.9 23.1 21.1 21.8 23.4 23.8 22.1 22.2 21.1 21.3 20.8 20.6 19.6 19.2 19.1 18.3 13.0 12.8 13.0 13.5 12.4 12.0 12.5 12.2 13.9 13.9 13.8 12.9 12.2 11.8 12.0 10.3 9.2 10.0